sat.trackr.live / text

‹ back to catalog

KEPLER-21

NORAD 56218 · 2023-054AS

PAYLOAD ACTIVE UNKNOWN

§ Identity

Operator
Country
CA
Launch date
2023-04-15
Launch site
AFWTR
Launch vehicle
Mass (kg)
RCS (m²)

External: N2YO · Heavens-Above · Gunter

§ Orbital elements

Epoch: 2026-05-25T00:47:18.235680Z

Period
90.61 min
Inclination
97.2875°
Eccentricity
0.0006490
Mean motion
15.89232251 rev/d
Perigee alt
300.1 km
Apogee alt
308.8 km
Semi-major
6,682.6 km
B*
5.4412e-4
RAAN
63.3248°
Arg perigee
109.7217°
Mean anomaly
250.4756°
Rev number
17,553

§ Raw data

KEPLER-211 56218U 23054AS  26145.03284995  .00155301  10703-4  54412-3 0  99932 56218  97.2875  63.3248 0006490 109.7217 250.4756 15.89232251175532

JSON: /api/v1/satellites/56218 · /tle

For live sub-satellite position, see the globe view (requires WebGL).

§ Visibility from observer

Set your observer location to see the next 7 days of passes ≥ 10°. The values pass through the URL so the page stays shareable.

No JS? Fill the form by hand. The geolocation button needs JavaScript.